パンスターズ彗星

C/2022 JK5 ( PanSTARRS )

English version
Home page
Updated on December 1, 2023

---------------------------------------------------------------------

・ プロフィール

発見日 2022年5月9日
発見光度 21.0等
発見者 Pan-STARRS 2 telescope (Haleakala)

・ 写真集

・ 軌道要素

Epoch 2023 Sept. 13.0 TT = JDT 2460200.5
T 2023 Apr. 28.85446 TT                                 Rudenko
q   2.6870347            (2000.0)            P               Q
z  +0.0231246      Peri.  247.17141     +0.56526762     +0.78615387
 +/-0.0000046      Node    59.65111     -0.60998476     +0.60227162
e   0.9378634      Incl.   16.83086     -0.55532972     +0.13867584
>From 458 observations 2022 May 9-2023 Sept. 25, mean residual 0".3.

・ 星図

・ 光度変化

        H = 14.5  G = 0.15                        [   ,-79]  (              〜2023年 2月 8日)
        m1 = -14.0 + 5 logΔ + 60 log r(t - 120)  [-79,120]  (2023年 2月 8日〜2023年 8月26日)
        m1 =  -5.4 + 5 logΔ + 40 log r(t - 120)  [120,   ]  (2023年 8月26日〜              )

---------------------------------------------------------------------

軌道要素はM.P.E.C. 2023-S260に掲載されたものです。
星図はステラナビゲータ Ver.11 (アストロアーツ) で作成したものです。
光度グラフはComet for Windowsで作成したものです。

---------------------------------------------------------------------

Copyright(C) Seiichi Yoshida (comet@aerith.net). All rights reserved.